Time,TemperatureF,DewpointF,PressureIn,WindDirection,WindDirectionDegrees,WindSpeedMPH,WindSpeedGustMPH,Humidity,HourlyPrecipIn,Conditions,Clouds,dailyrainin,SolarRadiationWatts/m^2,SoftwareType,DateUTC
2013-07-25 00:02:00,60.0,54.0,-100.00,SSW,192,1.0,5.0,80,0.00,,,0.00,0.000000,,2013-07-25 04:02:00,
2013-07-25 00:12:00,60.0,54.0,-100.00,SSW,192,1.0,5.0,80,0.00,,,0.00,0.000000,,2013-07-25 04:12:00,
2013-07-25 00:22:00,60.0,54.0,-100.00,SSW,192,1.0,5.0,80,0.00,,,0.00,0.000000,,2013-07-25 04:22:00,
2013-07-25 00:43:00,58.0,55.0,-100.00,West,267,1.0,3.0,90,0.00,,,0.00,0.000000,,2013-07-25 04:43:00,
2013-07-25 00:53:00,58.0,55.0,-100.00,West,267,1.0,3.0,90,0.00,,,0.00,0.000000,,2013-07-25 04:53:00,
2013-07-25 01:02:00,58.0,55.0,-100.00,West,267,1.0,3.0,90,0.00,,,0.00,0.000000,,2013-07-25 05:02:00,
2013-07-25 01:12:00,58.0,55.0,-100.00,West,267,1.0,3.0,90,0.00,,,0.00,0.000000,,2013-07-25 05:12:00,
2013-07-25 01:22:00,58.0,55.0,-100.00,West,267,1.0,3.0,90,0.00,,,0.00,0.000000,,2013-07-25 05:22:00,
2013-07-25 01:43:00,56.0,54.0,-100.00,ENE,58,1.0,2.0,94,0.00,,,-99.99,0.000000,,2013-07-25 05:43:00,
2013-07-25 01:52:00,56.0,54.0,-100.00,ENE,58,1.0,2.0,94,0.00,,,-99.99,0.000000,,2013-07-25 05:52:00,
2013-07-25 02:02:00,56.0,54.0,-100.00,ENE,58,1.0,2.0,94,0.00,,,-99.99,0.000000,,2013-07-25 06:02:00,
2013-07-25 02:12:00,56.0,54.0,-100.00,ENE,58,1.0,2.0,94,0.00,,,-99.99,0.000000,,2013-07-25 06:12:00,
2013-07-25 02:22:00,56.0,54.0,-100.00,ENE,58,1.0,2.0,94,0.00,,,-99.99,0.000000,,2013-07-25 06:22:00,
2013-07-25 03:43:00,54.0,53.0,-100.00,ENE,64,0.0,2.0,98,-99.99,,,-99.99,0.000000,,2013-07-25 07:43:00,
2013-07-25 03:53:00,54.0,53.0,-100.00,ENE,64,0.0,2.0,98,-99.99,,,-99.99,0.000000,,2013-07-25 07:53:00,
2013-07-25 04:02:00,54.0,53.0,-100.00,ENE,64,0.0,2.0,98,-99.99,,,-99.99,0.000000,,2013-07-25 08:02:00,
2013-07-25 04:12:00,54.0,53.0,-100.00,ENE,64,0.0,2.0,98,-99.99,,,-99.99,0.000000,,2013-07-25 08:12:00,
2013-07-25 04:22:00,54.0,53.0,-100.00,ENE,64,0.0,2.0,98,-99.99,,,-99.99,0.000000,,2013-07-25 08:22:00,
2013-07-25 05:43:00,53.0,53.0,-100.00,West,272,2.0,3.0,99,-99.99,,,0.00,0.000000,,2013-07-25 09:43:00,
2013-07-25 05:53:00,53.0,53.0,-100.00,West,272,2.0,3.0,99,-99.99,,,0.00,0.000000,,2013-07-25 09:53:00,
2013-07-25 06:02:00,53.0,53.0,-100.00,West,272,2.0,3.0,99,-99.99,,,0.00,0.000000,,2013-07-25 10:02:00,
2013-07-25 06:12:00,53.0,53.0,-100.00,West,272,2.0,3.0,99,-99.99,,,0.00,0.000000,,2013-07-25 10:12:00,
2013-07-25 06:22:00,53.0,53.0,-100.00,West,272,2.0,3.0,99,-99.99,,,0.00,0.000000,,2013-07-25 10:22:00,
2013-07-25 06:53:00,52.0,51.0,-100.00,WSW,242,1.0,2.0,97,0.00,,,0.00,0.000000,,2013-07-25 10:53:00,
2013-07-25 07:02:00,52.0,51.0,-100.00,WSW,242,1.0,2.0,97,0.00,,,0.00,0.000000,,2013-07-25 11:02:00,
2013-07-25 07:12:00,52.0,51.0,-100.00,WSW,242,1.0,2.0,97,0.00,,,0.00,0.000000,,2013-07-25 11:12:00,
2013-07-25 07:22:00,52.0,51.0,-100.00,WSW,242,1.0,2.0,97,0.00,,,0.00,0.000000,,2013-07-25 11:22:00,
2013-07-25 07:43:00,53.0,53.0,-100.00,WNW,289,1.0,2.0,99,0.00,,,0.00,14.000000,,2013-07-25 11:43:00,
2013-07-25 07:52:00,53.0,53.0,-100.00,WNW,289,1.0,2.0,99,0.00,,,0.00,14.000000,,2013-07-25 11:52:00,
2013-07-25 08:03:00,53.0,53.0,-100.00,WNW,289,1.0,2.0,99,0.00,,,0.00,14.000000,,2013-07-25 12:03:00,
2013-07-25 08:12:00,53.0,53.0,-100.00,WNW,289,1.0,2.0,99,0.00,,,0.00,14.000000,,2013-07-25 12:12:00,
2013-07-25 08:22:00,53.0,53.0,-100.00,WNW,289,1.0,2.0,99,0.00,,,0.00,14.000000,,2013-07-25 12:22:00,
2013-07-25 08:45:00,57.0,57.0,-100.00,WNW,294,1.0,3.0,99,0.00,,,0.00,94.000000,,2013-07-25 12:45:00,
2013-07-25 08:53:00,57.0,57.0,-100.00,WNW,294,1.0,3.0,99,0.00,,,0.00,94.000000,,2013-07-25 12:53:00,
2013-07-25 09:02:00,57.0,57.0,-100.00,WNW,294,1.0,3.0,99,0.00,,,0.00,94.000000,,2013-07-25 13:02:00,
2013-07-25 09:12:00,57.0,57.0,-100.00,WNW,294,1.0,3.0,99,0.00,,,0.00,94.000000,,2013-07-25 13:12:00,
2013-07-25 09:22:00,57.0,57.0,-100.00,WNW,294,1.0,3.0,99,0.00,,,0.00,94.000000,,2013-07-25 13:22:00,
2013-07-25 09:53:00,64.0,56.0,-100.00,NW,317,2.0,5.0,75,0.00,,,0.00,413.000000,,2013-07-25 13:53:00,
2013-07-25 10:02:00,64.0,56.0,-100.00,NW,317,2.0,5.0,75,0.00,,,0.00,413.000000,,2013-07-25 14:02:00,
2013-07-25 10:12:00,64.0,56.0,-100.00,NW,317,2.0,5.0,75,0.00,,,0.00,413.000000,,2013-07-25 14:12:00,
2013-07-25 10:22:00,64.0,56.0,-100.00,NW,317,2.0,5.0,75,0.00,,,0.00,413.000000,,2013-07-25 14:22:00,
2013-07-25 10:43:00,68.0,57.0,-100.00,ENE,69,2.0,9.0,68,0.00,,,0.00,630.000000,,2013-07-25 14:43:00,
2013-07-25 10:53:00,68.0,57.0,-100.00,ENE,69,2.0,9.0,68,0.00,,,0.00,630.000000,,2013-07-25 14:53:00,
2013-07-25 11:02:00,68.0,57.0,-100.00,ENE,69,2.0,9.0,68,0.00,,,0.00,630.000000,,2013-07-25 15:02:00,
2013-07-25 11:12:00,68.0,57.0,-100.00,ENE,69,2.0,9.0,68,0.00,,,0.00,630.000000,,2013-07-25 15:12:00,
2013-07-25 11:22:00,68.0,57.0,-100.00,ENE,69,2.0,9.0,68,0.00,,,0.00,630.000000,,2013-07-25 15:22:00,
2013-07-25 11:44:00,70.0,56.0,-100.00,West,268,3.0,7.0,61,0.00,,,0.00,819.000000,,2013-07-25 15:44:00,
2013-07-25 11:53:00,70.0,56.0,-100.00,West,268,3.0,7.0,61,0.00,,,0.00,819.000000,,2013-07-25 15:53:00,
2013-07-25 12:02:00,70.0,56.0,-100.00,West,268,3.0,7.0,61,0.00,,,0.00,819.000000,,2013-07-25 16:02:00,
2013-07-25 12:12:00,70.0,56.0,-100.00,West,268,3.0,7.0,61,0.00,,,0.00,819.000000,,2013-07-25 16:12:00,
2013-07-25 12:22:00,70.0,56.0,-100.00,West,268,3.0,7.0,61,0.00,,,0.00,819.000000,,2013-07-25 16:22:00,
2013-07-25 12:53:00,73.0,56.0,-100.00,SW,236,3.0,6.0,56,0.00,,,0.00,986.000000,,2013-07-25 16:53:00,
2013-07-25 13:03:00,73.0,56.0,-100.00,SW,236,3.0,6.0,56,0.00,,,0.00,986.000000,,2013-07-25 17:03:00,
2013-07-25 13:12:00,73.0,56.0,-100.00,SW,236,3.0,6.0,56,0.00,,,0.00,986.000000,,2013-07-25 17:12:00,
2013-07-25 13:22:00,73.0,56.0,-100.00,SW,236,3.0,6.0,56,0.00,,,0.00,986.000000,,2013-07-25 17:22:00,
2013-07-25 13:53:00,76.0,58.0,-100.00,SE,139,3.0,7.0,54,0.00,,,0.00,1073.000000,,2013-07-25 17:53:00,
2013-07-25 14:02:00,76.0,58.0,-100.00,SE,139,3.0,7.0,54,0.00,,,0.00,1073.000000,,2013-07-25 18:02:00,
2013-07-25 14:12:00,76.0,58.0,-100.00,SE,139,3.0,7.0,54,0.00,,,0.00,1073.000000,,2013-07-25 18:12:00,
2013-07-25 14:22:00,76.0,58.0,-100.00,SE,139,3.0,7.0,54,0.00,,,0.00,1073.000000,,2013-07-25 18:22:00,
2013-07-25 14:43:00,77.0,57.0,-100.00,SSW,209,3.0,7.0,50,0.00,,,-99.99,1133.000000,,2013-07-25 18:43:00,
2013-07-25 14:52:00,77.0,57.0,-100.00,SSW,209,3.0,7.0,50,0.00,,,-99.99,1133.000000,,2013-07-25 18:52:00,
2013-07-25 15:03:00,77.0,57.0,-100.00,SSW,209,3.0,7.0,50,0.00,,,-99.99,1133.000000,,2013-07-25 19:03:00,
2013-07-25 15:12:00,77.0,57.0,-100.00,SSW,209,3.0,7.0,50,0.00,,,-99.99,1133.000000,,2013-07-25 19:12:00,
2013-07-25 15:22:00,77.0,57.0,-100.00,SSW,209,3.0,7.0,50,0.00,,,-99.99,1133.000000,,2013-07-25 19:22:00,
2013-07-25 15:43:00,78.0,56.0,-100.00,WNW,283,3.0,7.0,46,0.00,,,0.00,1101.000000,,2013-07-25 19:43:00,
2013-07-25 15:53:00,78.0,56.0,-100.00,WNW,283,3.0,7.0,46,0.00,,,0.00,1101.000000,,2013-07-25 19:53:00,
2013-07-25 16:02:00,78.0,56.0,-100.00,WNW,283,3.0,7.0,46,0.00,,,0.00,1101.000000,,2013-07-25 20:02:00,
2013-07-25 16:22:00,78.0,56.0,-100.00,WNW,283,3.0,7.0,46,0.00,,,0.00,1101.000000,,2013-07-25 20:22:00,
2013-07-25 16:54:00,79.0,55.0,-100.00,NW,308,3.0,6.0,44,0.00,,,0.00,950.000000,,2013-07-25 20:54:00,
2013-07-25 17:03:00,79.0,55.0,-100.00,NW,308,3.0,6.0,44,0.00,,,0.00,950.000000,,2013-07-25 21:03:00,
2013-07-25 17:12:00,79.0,55.0,-100.00,NW,308,3.0,6.0,44,0.00,,,0.00,950.000000,,2013-07-25 21:12:00,
2013-07-25 17:22:00,79.0,55.0,-100.00,NW,308,3.0,6.0,44,0.00,,,0.00,950.000000,,2013-07-25 21:22:00,
2013-07-25 18:53:00,78.0,57.0,-100.00,WNW,283,2.0,9.0,48,-99.99,,,0.00,626.000000,,2013-07-25 22:53:00,
2013-07-25 19:02:00,78.0,57.0,-100.00,WNW,283,2.0,9.0,48,-99.99,,,0.00,626.000000,,2013-07-25 23:02:00,
2013-07-25 19:12:00,78.0,57.0,-100.00,WNW,283,2.0,9.0,48,-99.99,,,0.00,626.000000,,2013-07-25 23:12:00,
2013-07-25 19:22:00,78.0,57.0,-100.00,WNW,283,2.0,9.0,48,-99.99,,,0.00,626.000000,,2013-07-25 23:22:00,
2013-07-25 19:52:00,73.0,58.0,-100.00,East,94,1.0,4.0,59,0.00,,,0.00,369.000000,,2013-07-25 23:52:00,
2013-07-25 20:02:00,73.0,58.0,-100.00,East,94,1.0,4.0,59,0.00,,,0.00,369.000000,,2013-07-26 00:02:00,
2013-07-25 20:12:00,73.0,58.0,-100.00,East,94,1.0,4.0,59,0.00,,,0.00,369.000000,,2013-07-26 00:12:00,
2013-07-25 20:22:00,73.0,58.0,-100.00,East,94,1.0,4.0,59,0.00,,,0.00,369.000000,,2013-07-26 00:22:00,
2013-07-25 22:12:00,62.0,57.0,-100.00,East,92,1.0,3.0,84,-99.99,,,0.00,5.000000,,2013-07-26 02:12:00,
2013-07-25 22:22:00,62.0,57.0,-100.00,East,92,1.0,3.0,84,-99.99,,,0.00,5.000000,,2013-07-26 02:22:00,
2013-07-25 23:23:00,60.0,59.0,-100.00,ESE,104,2.0,2.0,96,-99.99,,,0.00,0.000000,,2013-07-26 03:23:00,
2013-07-25 23:53:00,60.0,59.0,-100.00,ESE,104,2.0,2.0,96,-99.99,,,0.00,0.000000,,2013-07-26 03:53:00,